sat.trackr.live / text

‹ back to catalog

STARLINK-11090 [DTC]

NORAD 59422 · 2024-065B

PAYLOAD ACTIVE UNKNOWN

§ Identity

Operator
Country
US
Launch date
2024-04-07
Launch site
AFWTR
Launch vehicle
Mass (kg)
RCS (m²)

Purposes: comms

External: N2YO · Heavens-Above · Gunter

§ Orbital elements

Epoch: 2026-09-21T03:43:21.476352Z

Period
91.74 min
Inclination
53.1593°
Eccentricity
0.0000930
Mean motion
15.69710574 rev/d
Perigee alt
359.1 km
Apogee alt
360.4 km
Semi-major
6,737.9 km
B*
-1.5147e-6
RAAN
210.2742°
Arg perigee
90.1276°
Mean anomaly
269.9848°
Rev number
14,223

§ Raw data

STARLINK-11090 [DTC]1 59422U 24065B   26264.15510968 -.00000772  00000+0 -15147-5 0  99942 59422  53.1593 210.2742 0000930  90.1276 269.9848 15.69710574142238

JSON: /api/v1/satellites/59422 · /tle

For live sub-satellite position, see the globe view (requires WebGL).

§ Visibility from observer

Set your observer location to see the next 7 days of passes ≥ 10°. The values pass through the URL so the page stays shareable.

No JS? Fill the form by hand. The geolocation button needs JavaScript.